Location: Newark
(10.6558°N, 61.4122°W)
Time: 22:20:22
(UTC+00:00)

Envisat - Visible Passes

Search period start: 19 August 2019 00:00
Search period end: 29 August 2019 00:00
Orbit: 764 x 766 km, 98.1° (Epoch: 19 August)

Date Brightness Start Highest point End Pass type
(mag) Time Alt. Az. Time Alt. Az. Time Alt. Az.
20 Aug 5.2 23:26:52 10° SSW 23:31:00 25° W 23:35:09 10° NW visible
21 Aug 3.3 22:49:15 10° S 22:54:17 72° WSW 22:59:21 10° NNW visible
22 Aug 6.0 23:54:36 10° WSW 23:56:31 12° W 23:58:24 10° WNW visible
23 Aug 4.7 23:15:12 10° SSW 23:19:46 34° W 23:24:20 10° NW visible
24 Aug 3.0 22:38:00 10° SSE 22:43:04 84° ENE 22:48:08 10° N visible
25 Aug 5.8 23:42:05 10° SW 23:45:16 17° W 23:48:26 10° WNW visible
26 Aug 4.1 23:03:41 10° S 23:08:31 46° W 23:13:22 10° NNW visible
28 Aug 5.4 23:30:05 10° SSW 23:34:00 23° W 23:37:56 10° NW visible
